Weather Roundup
Issued by NWS Chicago, IL

Home | Current Version | Previous Version | Text Only | Print | Product List | Glossary On
Versions: 1 2 3 4 5 6 7 8 9 10 11 12 13 14 15 16 17 18 19 20 21 22 23 24 25 26 27 28 29 30 31 32 33 34 35 36 37 38 39 40 41 42 43 44 45 46 47 48 49 50
000
NZUS59 KLOT 230910
HRRLOT

CHICAGO AREA WEATHER ROUNDUP
NATIONAL WEATHER SERVICE CHICAGO/ROMEOVILLE IL
400 AM CDT WED APR 23 2014

NOTE: "FAIR" INDICATES FEW OR NO CLOUDS BELOW 12,000 FEET WITH NO
SIGNIFICANT WEATHER AND/OR OBSTRUCTIONS TO VISIBILITY.

* THESE STATIONS ARE NOT UNDER NWS QUALITY CONTROL. THEY ALSO MAY NOT
  REPORT WEATHER SUCH AS PRECIPITATION OR FOG.

ILZ005-006-012>014-019>023-231000-
NORTHEAST ILLINOIS

CITY           SKY/WX    TMP DP  RH WIND       PRES   REMARKS
OHARE          CLEAR     36  26  67 N6        30.13R
MIDWAY         CLEAR     37  29  72 N10       30.12R
AURORA         CLEAR     30  25  81 NE7       30.12R WCI  23
LANSING*       CLEAR     36  28  73 N6        30.12R
JOLIET*        CLEAR     36  29  76 NE7       30.13R
WAUKEGAN       CLEAR     32  27  81 CALM      30.13R
DUPAGE AIRPORT CLEAR     32  27  81 N5        30.12R WCI  27
WHEELING       CLEAR     35  28  75 N5        30.14R WCI  31
KANKAKEE*      CLEAR     35  30  82 N5        30.12R WCI  31
MORRIS*        CLEAR     35  27  73 CALM      30.12R
LEWIS AIRPORT* CLEAR     34  28  80 NE7       30.12R WCI  28
NORTHERLY IS     N/A     37  30  76 MISG        N/A
$$

WIZ051-052-058>065-066-070>072-231000-
SOUTHEAST WISCONSIN

CITY           SKY/WX    TMP DP  RH WIND       PRES   REMARKS
MILWAUKEE      CLEAR     33  26  75 N6        30.15R WCI  28
KENOSHA*       CLEAR     32  27  81 N5        30.13R WCI  27
RACINE*        CLEAR     33  27  78 N8        30.15S WCI  26
BURLINGTON     CLEAR     26  24  93 CALM      30.13R
WAUKESHA       CLEAR     32  28  86 CALM      30.15R
WEST BEND      CLEAR     30  28  93 CALM      30.14R
$$

INZ001>003-010>013-019-020-231000-
NORTHWEST INDIANA

CITY           SKY/WX    TMP DP  RH WIND       PRES   REMARKS
GARY*          CLEAR     38  29  70 N12G18    30.13R
MICHIGAN CITY* NOT AVBL
RENSSELAER*    NOT AVBL
VALPARAISO     CLEAR     34  27  75 N8        30.10R WCI  27
$$

LMZ740>746-231000-
SOUTHERN LAKE MICHIGAN

STATION/POSITION TIME  SKY/WX   TEMP WIND        PRES    VSBY
                                AIR  DIR/SP/G
                 (UTC)          (F)  (DEG/KT/KT) (MB)    (MI)
HARRISON CRIB    0900            36  360/ 17/ 19   N/A
BURNHAM HARBOR   0900            37  350/ 13/ 16   N/A
CALUMET HARBOR   0900            37  350/ 12/ 20 1020.8R
BURNS HARBOR     NOT AVBL
MICHIGAN CITY    0900            36  350/ 16/ 20   N/A
$$

ABBREVIATIONS USED IN REMARKS
   TC - TEMPERATURE IN CELSIUS
  WCI - WIND CHILL INDEX
   HX - HEAT INDEX
  VSB - VISIBILITY
$$


USA.gov is the U.S. government's official web portal to all federal, state and local government web resources and services.